[[{"header":{"parameterUnit":"m.s-1","parameterCategory":1,"la1":30.2991,"la2":30.254,"lo1":-89.0895,"lo2":-89.0444,"dy":0.0017,"dx":0.0017,"nx":28,"ny":28,"refTime":"2024-03-19T03:00:00:Z","depth":0,"parameterNumber":2,"parameterNumberName":"U-component_of_WINDS"},"data":[0,0,0,0,0,0,0,0,0,0,0,0,0,0,0,0,0,0,0,0,0,0,0,0,0,0,0,0,0,0,0,0,0,0,0,0,0,0,0,0,0,0,0,0,0,0,0,0,0,0,0,0,0,0,0,0,0,0,0.6861,0.6861,0,0.6854,0.6854,0.6853,0.6872,0.6872,0.6873,0.6873,0.6863,0.6863,0.6862,0,0,0,0,0,0,0,0,0,0,0,0,0,0.6887,0.6887,0.6861,0.686,0.686,0.6854,0.6854,0.6853,0.6872,0.6872,0.6873,0.6874,0.6864,0.6863,0.6862,0,0,0,0,0,0,0,0,0,0,0,0,0,0.6877,0.6886,0.6861,0.6869,0.6869,0.6854,0.6854,0.6853,0.6871,0.6872,0.6873,0.6874,0.6864,0.6863,0.6862,0.6837,0,0,0.6858,0.6857,0,0,0,0,0,0,0,0,0.6878,0.6876,0.6868,0.6868,0.6869,0.6865,0.6859,0.6848,0.6871,0.6871,0.6873,0.6874,0.6863,0.6862,0.6858,0.6836,0.6836,0.6858,0.6857,0.6856,0.6856,0,0,0,0,0,0,0,0.6879,0.6877,0.6858,0.6867,0.6868,0.6872,0.6872,0.6857,0.6862,0.6871,0.6872,0.6871,0.6863,0.686,0.6858,0.6836,0.6858,0.6857,0.6856,0.6855,0.6793,0.6792,0,0,0,0,0,0,0.6879,0.6877,0.6858,0.6858,0.6876,0.6871,0.687,0.6865,0.6862,0.6863,0.687,0.6872,0.6861,0.686,0.6858,0.6829,0.6856,0.6855,0.6855,0.6794,0.6793,0.6792,0,0,0,0,0,0,0.6879,0.6877,0.6858,0.6868,0.6866,0.6869,0.6863,0.6864,0.6861,0.6862,0.6863,0.6866,0.6862,0.686,0.6842,0.6829,0.6855,0.6854,0.6795,0.6793,0.6792,0.677,0,0,0,0,0,0,0.688,0.6877,0.6868,0.6867,0.6865,0.6843,0.6862,0.6864,0.6859,0.6861,0.6858,0.6858,0.6862,0.6844,0.6841,0.6827,0.6853,0.6796,0.6794,0.6792,0.6772,0.6768,0.6764,0,0,0,0,0,0.6881,0.6861,0.6867,0.6865,0.6854,0.6842,0.6841,0.6847,0.6858,0.6848,0.6849,0.6858,0.6831,0.6842,0.6839,0.6825,0.6797,0.6795,0.6793,0.6773,0.6768,0.6764,0,0,0,0,0,0,0.6859,0.6861,0.6868,0.6848,0.6845,0.6845,0.6834,0.6842,0.6835,0.6837,0.6844,0.6843,0.6824,0.6823,0.6835,0.68,0.6815,0.6813,0.6802,0.6797,0.6794,0.6794,0.6852,0,0,0,0,0,0.6852,0.6843,0.6845,0.6827,0.6825,0.683,0.6825,0.683,0.6827,0.6825,0.6825,0.682,0.6811,0.6804,0.6795,0.6772,0.6771,0.6761,0.6757,0.6754,0.6751,0.6738,0.6734,0.6785,0.6785,0.6785,0,0,0.6837,0.6837,0.6831,0.6823,0.6821,0.6811,0.6828,0.6817,0.6809,0.6823,0.6806,0.6806,0.6802,0.6781,0.6772,0.6779,0.6737,0.6751,0.6749,0.6748,0.6736,0.6731,0.6727,0.6783,0.6783,0.6784,0,0,0.6804,0.6804,0.6789,0.6787,0.6784,0.6788,0.6784,0.6784,0.6784,0.6768,0.6778,0.6769,0.6752,0.6749,0.6745,0.6712,0.6719,0.6709,0.6689,0.6677,0.6673,0.6669,0.6657,0.6652,0.6706,0.6706,0.6706,0,0.6785,0.6771,0.678,0.6768,0.6764,0.6777,0.6762,0.6759,0.6753,0.675,0.6759,0.6739,0.6737,0.6715,0.6707,0.6704,0.6699,0.6708,0.6673,0.6669,0.6666,0.6654,0.665,0.6705,0.6705,0.6705,0.6705,0,0.6748,0.6738,0.6726,0.6722,0.6716,0.6702,0.6708,0.6702,0.6708,0.671,0.6693,0.6691,0.6683,0.6678,0.6683,0.6657,0.6662,0.6672,0.6687,0.666,0.6649,0.6644,0.6703,0.6703,0.6704,0.6704,0,0,0.67,0.6702,0.6697,0.6695,0.6694,0.6686,0.6672,0.6665,0.6659,0.6655,0.6643,0.6629,0.6638,0.6634,0.6639,0.6628,0.6601,0.6639,0.6639,0.6631,0.6572,0.6564,0.6559,0.6607,0.6606,0.6606,0.6572,0,0.6668,0.6646,0.6654,0.6631,0.6621,0.6635,0.6623,0.662,0.6622,0.6614,0.6616,0.6606,0.6619,0.6616,0.6606,0.6607,0.6589,0.6609,0.6595,0.6595,0.6595,0.6553,0.6545,0.6514,0.6568,0.6567,0.6567,0,0.6627,0.6622,0.6599,0.6599,0.6595,0.6585,0.6579,0.6571,0.6568,0.657,0.6566,0.6573,0.6559,0.6575,0.6556,0.657,0.6564,0.6564,0.6563,0.6561,0.6578,0.6549,0.6504,0.6499,0.656,0.6561,0.6561,0,0.6593,0.6581,0.6566,0.6564,0.6564,0.6556,0.6556,0.6555,0.655,0.6544,0.6541,0.6533,0.6529,0.6523,0.6527,0.6539,0.6507,0.6524,0.6508,0.6507,0.6499,0.65,0.6451,0.6497,0.6498,0.6498,0.6498,0,0.6556,0.6541,0.6551,0.6541,0.6525,0.6534,0.6517,0.6518,0.6516,0.6506,0.6517,0.6508,0.6515,0.6506,0.651,0.6493,0.6491,0.6492,0.6493,0.649,0.649,0.6486,0.6488,0.6496,0.6497,0.6497,0.6497,0,0.6515,0.6522,0.6505,0.6508,0.6508,0.6496,0.6497,0.6488,0.6491,0.6478,0.6476,0.648,0.647,0.6475,0.6464,0.6466,0.6444,0.6449,0.6446,0.6446,0.643,0.6431,0.6376,0.6369,0.6421,0.642,0.642,0,0.649,0.6479,0.6481,0.6475,0.6475,0.6466,0.6461,0.647,0.6464,0.6461,0.6452,0.6443,0.6436,0.6419,0.6421,0.6412,0.6416,0.6398,0.6415,0.6412,0.6415,0.6415,0.6414,0.6394,0.6393,0.6393,0.6392,0,0.6445,0.6449,0.6443,0.6437,0.6432,0.6427,0.6424,0.6419,0.6427,0.6421,0.6411,0.6406,0.6395,0.6386,0.6379,0.6377,0.6386,0.6387,0.6383,0.6379,0.6378,0.6378,0.6435,0.6388,0.6388,0.6389,0.6389,0.6389,0.6411,0.6402,0.6402,0.6394,0.6393,0.639,0.6381,0.6384,0.6376,0.6369,0.6374,0.6363,0.636,0.6352,0.6349,0.634,0.6347,0.6341,0.6339,0.6337,0.6335,0.638,0.6339,0.6339,0.6339,0.6339,0.6339,0,0.6366,0.6367,0.636,0.6355,0.6349,0.6359,0.6356,0.635,0.634,0.6338,0.6331,0.632,0.6311,0.6313,0.6304,0.6296,0.63,0.6294,0.6294,0.6293,0.6329,0.6333,0.6291,0.6291,0.6291,0.6291,0.6291,0.6291,0.6342,0.6327,0.6331,0.6315,0.6315,0.6305,0.6302,0.6299,0.6297,0.6285,0.6278,0.6279,0.6278,0.627,0.6262,0.6263,0.6259,0.6251,0.6253,0.6286,0.6291,0.6295,0.6299,0.6251,0.6251,0.6218,0.6218,0.6217]},{"header":{"parameterUnit":"m.s-1","parameterCategory":1,"la1":30.2991,"la2":30.254,"lo1":-89.0895,"lo2":-89.0444,"dy":0.0017,"dx":0.0017,"nx":28,"ny":28,"refTime":"2024-03-19T03:00:00:Z","depth":0,"parameterNumber":3,"parameterNumberName":"V-component_of_WINDS"},"data":[0,0,0,0,0,0,0,0,0,0,0,0,0,0,0,0,0,0,0,0,0,0,0,0,0,0,0,0,0,0,0,0,0,0,0,0,0,0,0,0,0,0,0,0,0,0,0,0,0,0,0,0,0,0,0,0,0,0,-0.8666,-0.8667,0,-0.8744,-0.8745,-0.8746,-0.8755,-0.8754,-0.8753,-0.8753,-0.8833,-0.8836,-0.8839,0,0,0,0,0,0,0,0,0,0,0,0,0,-0.8525,-0.8528,-0.8666,-0.8667,-0.8668,-0.8744,-0.8745,-0.8746,-0.8755,-0.8754,-0.8753,-0.8752,-0.8832,-0.8835,-0.8839,0,0,0,0,0,0,0,0,0,0,0,0,0,-0.8593,-0.8529,-0.8666,-0.8682,-0.8684,-0.8744,-0.8745,-0.8746,-0.8755,-0.8754,-0.8753,-0.8752,-0.8831,-0.8835,-0.8839,-0.8889,0,0,-0.8852,-0.8854,0,0,0,0,0,0,0,0,-0.8589,-0.8598,-0.8678,-0.8681,-0.8683,-0.8739,-0.8725,-0.8794,-0.8756,-0.8728,-0.8753,-0.8751,-0.8803,-0.8809,-0.8826,-0.8893,-0.8896,-0.8853,-0.8855,-0.8857,-0.8858,0,0,0,0,0,0,0,-0.8584,-0.8595,-0.8697,-0.8679,-0.8682,-0.8685,-0.8693,-0.8738,-0.8771,-0.873,-0.8731,-0.874,-0.8804,-0.8822,-0.8828,-0.8897,-0.8853,-0.8856,-0.8859,-0.8861,-0.9009,-0.901,0,0,0,0,0,0,-0.8577,-0.8591,-0.8694,-0.8699,-0.8632,-0.8688,-0.8698,-0.8722,-0.877,-0.8777,-0.8741,-0.8741,-0.8815,-0.8823,-0.8831,-0.8893,-0.8857,-0.8861,-0.8864,-0.9008,-0.9009,-0.9011,0,0,0,0,0,0,-0.8574,-0.8586,-0.8691,-0.8645,-0.8659,-0.8692,-0.8719,-0.8724,-0.8743,-0.8779,-0.8785,-0.8754,-0.8815,-0.8825,-0.8875,-0.8896,-0.8863,-0.8867,-0.9006,-0.9008,-0.901,-0.9017,0,0,0,0,0,0,-0.857,-0.8585,-0.8604,-0.8646,-0.8661,-0.8733,-0.872,-0.8726,-0.875,-0.875,-0.8792,-0.8798,-0.8815,-0.8868,-0.8879,-0.8901,-0.887,-0.9004,-0.9007,-0.9009,-0.9015,-0.9019,-0.9022,0,0,0,0,0,-0.8565,-0.8603,-0.8605,-0.8617,-0.8686,-0.8734,-0.8743,-0.8762,-0.8752,-0.8771,-0.8794,-0.8797,-0.8892,-0.8873,-0.8885,-0.8909,-0.9003,-0.9006,-0.9009,-0.9013,-0.9018,-0.9022,0,0,0,0,0,0,-0.8562,-0.8608,-0.8611,-0.8664,-0.8695,-0.8736,-0.8761,-0.8766,-0.8801,-0.8799,-0.882,-0.883,-0.8879,-0.8899,-0.8877,-0.896,-0.8946,-0.8952,-0.8945,-0.895,-0.8954,-0.8948,-0.8874,0,0,0,0,0,-0.8568,-0.8604,-0.8642,-0.8684,-0.87,-0.8728,-0.875,-0.8761,-0.8794,-0.8808,-0.8834,-0.8867,-0.8904,-0.8928,-0.8964,-0.9017,-0.9027,-0.904,-0.9043,-0.9046,-0.9051,-0.9082,-0.9088,-0.9021,-0.9021,-0.9021,0,0,-0.858,-0.8609,-0.8631,-0.8685,-0.871,-0.8747,-0.8739,-0.8778,-0.8805,-0.8814,-0.8862,-0.8883,-0.892,-0.8972,-0.8996,-0.8991,-0.9072,-0.905,-0.9052,-0.9056,-0.9085,-0.9092,-0.9097,-0.9023,-0.9022,-0.9022,0,0,-0.8621,-0.8646,-0.8685,-0.8711,-0.875,-0.8768,-0.8777,-0.8818,-0.8832,-0.8881,-0.8888,-0.8921,-0.8984,-0.9011,-0.9033,-0.9084,-0.9087,-0.9095,-0.9114,-0.9144,-0.9149,-0.9154,-0.9173,-0.9179,-0.9099,-0.9099,-0.9099,0,-0.8631,-0.8686,-0.8704,-0.8743,-0.8767,-0.8776,-0.8816,-0.884,-0.8889,-0.8905,-0.8898,-0.8978,-0.9003,-0.9062,-0.9074,-0.9092,-0.9103,-0.909,-0.9147,-0.9152,-0.9156,-0.9175,-0.9182,-0.91,-0.91,-0.91,-0.91,0,-0.8697,-0.8735,-0.8762,-0.8809,-0.8836,-0.8875,-0.8899,-0.8924,-0.8933,-0.8952,-0.9002,-0.9033,-0.9076,-0.9091,-0.9099,-0.9151,-0.9146,-0.9142,-0.9129,-0.9163,-0.9181,-0.9188,-0.9101,-0.9101,-0.9101,-0.91,0,0,-0.8739,-0.8796,-0.8805,-0.8827,-0.887,-0.89,-0.894,-0.8982,-0.9003,-0.9036,-0.907,-0.9124,-0.9121,-0.9146,-0.9158,-0.9183,-0.9223,-0.9177,-0.9178,-0.9185,-0.9282,-0.9284,-0.9292,-0.9225,-0.9226,-0.9227,-0.9279,0,-0.8786,-0.8856,-0.8874,-0.8934,-0.897,-0.8979,-0.9014,-0.9044,-0.9063,-0.9097,-0.9117,-0.9155,-0.9148,-0.9163,-0.9189,-0.9212,-0.9242,-0.9209,-0.9257,-0.9259,-0.9249,-0.9301,-0.9305,-0.9351,-0.9286,-0.9287,-0.9288,0,-0.8849,-0.8884,-0.8948,-0.8987,-0.9003,-0.9034,-0.9074,-0.9105,-0.914,-0.9152,-0.918,-0.919,-0.9232,-0.9216,-0.9274,-0.9251,-0.9271,-0.9286,-0.9288,-0.9294,-0.9276,-0.9309,-0.9367,-0.9374,-0.9298,-0.9298,-0.9297,0,-0.8874,-0.8937,-0.8984,-0.9002,-0.9049,-0.907,-0.9091,-0.9124,-0.9149,-0.9184,-0.92,-0.9239,-0.9261,-0.9291,-0.9311,-0.9297,-0.9368,-0.9353,-0.9379,-0.9379,-0.9395,-0.9393,-0.9457,-0.9407,-0.9406,-0.9406,-0.9406,0,-0.8925,-0.8964,-0.8996,-0.9025,-0.9069,-0.9088,-0.9132,-0.9152,-0.9182,-0.9216,-0.9225,-0.9256,-0.9281,-0.9315,-0.9331,-0.9377,-0.9386,-0.9398,-0.9402,-0.9397,-0.9396,-0.9412,-0.9409,-0.9408,-0.9408,-0.9407,-0.9407,0,-0.8961,-0.8983,-0.9035,-0.9075,-0.9086,-0.9117,-0.9151,-0.918,-0.9199,-0.9241,-0.9252,-0.9282,-0.9323,-0.9346,-0.9397,-0.9408,-0.9459,-0.9461,-0.9448,-0.945,-0.9475,-0.9472,-0.9551,-0.9563,-0.9504,-0.9504,-0.9505,0,-0.8992,-0.9022,-0.9065,-0.9088,-0.9109,-0.9146,-0.9171,-0.9191,-0.9217,-0.9259,-0.9282,-0.9324,-0.9358,-0.9423,-0.945,-0.9489,-0.9493,-0.9518,-0.9499,-0.9494,-0.9494,-0.9492,-0.9496,-0.9521,-0.9522,-0.9522,-0.9522,0,-0.9044,-0.9054,-0.909,-0.9129,-0.9159,-0.9191,-0.9223,-0.9241,-0.9267,-0.9295,-0.9337,-0.9363,-0.9416,-0.9457,-0.9499,-0.952,-0.9526,-0.9528,-0.9536,-0.9533,-0.9524,-0.953,-0.9457,-0.9526,-0.9526,-0.9526,-0.9525,-0.9525,-0.9079,-0.9107,-0.9142,-0.9181,-0.9207,-0.9237,-0.9266,-0.9288,-0.9324,-0.9368,-0.9378,-0.9423,-0.9457,-0.9514,-0.9536,-0.9572,-0.9567,-0.9579,-0.9582,-0.9585,-0.9586,-0.9518,-0.9579,-0.9579,-0.9579,-0.9579,-0.9579,0,-0.9134,-0.9156,-0.9192,-0.9237,-0.9268,-0.927,-0.9305,-0.9331,-0.937,-0.9402,-0.9435,-0.9484,-0.9524,-0.9554,-0.9595,-0.9618,-0.9621,-0.9628,-0.9627,-0.9632,-0.9587,-0.9576,-0.9624,-0.9624,-0.9624,-0.9624,-0.9624,-0.9624,-0.9165,-0.9212,-0.9226,-0.9287,-0.9309,-0.9353,-0.9373,-0.9401,-0.9426,-0.948,-0.9513,-0.9532,-0.9564,-0.9607,-0.9644,-0.9652,-0.9667,-0.9673,-0.9681,-0.964,-0.9635,-0.963,-0.962,-0.9676,-0.9676,-0.9723,-0.9723,-0.9724]}]]